Regional Weather Roundup
Issued by NWS

Home | Current Version | Previous Version | Graphics & Text | Print | Product List | Glossary On
Versions: 1 2 3 4 5 6 7 8 9 10 11 12 13 14 15 16 17 18 19 20 21 22 23 24 25 26 27 28 29 30 31 32 33 34 35 36 37 38 39 40 41 42 43 44 45 46 47 48 49 50
000
ASUS45 KABQ 250910
RWRNM
NEW MEXICO REGIONAL WEATHER ROUNDUP
NATIONAL WEATHER SERVICE ALBUQUERQUE NM
300 AM MDT SUN JUN 25 2017

NOTE: "FAIR" MEANS FEW OR NO CLOUDS BELOW 12,000 FEET AGL WITH NO
       SIGNIFICANT WEATHER OR OBSTRUCTIONS TO VISION.

      THIS PRODUCT IS RELEASED AS TWO VERSIONS.  ONE VERSION NEAR
      THE TOP OF THE HOUR CONTAINING PRELIMINARY DATA FROM ALBUQUERQUE
      AND OTHER STATIONS.  A FINAL VERSION WITH ADDITIONAL DATA IS
      ISSUED ABOUT 10 MINUTES AFTER THE HOUR.

NMZ501-503-504-510>518-251000-
NORTHWEST PLATEAU/NORTHCENTRAL MOUNTAINS

CITY           SKY/WX    TMP DP  RH WIND       PRES   REMARKS
FARMINGTON     FAIR      63  31  30 E9        30.17R
LOS ALAMOS     CLOUDY    61  53  73 S15       30.42R
SANTA FE       FAIR      64  56  75 SE17      30.35S
TAOS           FAIR      61  45  55 SE10      30.40R
ANGEL FIRE     MOCLDY    53  50  91 S5        30.49S

$$
NMZ402-403-502-505>509-251000-
WESTCENTRAL MOUNTAINS/SOUTHWEST MOUNTAINS

CITY           SKY/WX    TMP DP  RH WIND       PRES   REMARKS
GALLUP         FAIR      64  40  41 E3        30.25S
GRANTS         FAIR      62  46  55 S16G23    30.31R
SILVER CITY    FAIR      61  57  87 CALM      30.30S

$$
NMZ407-409-411-412-251000-
SOUTHERN DESERTS

CITY           SKY/WX    TMP DP  RH WIND       PRES   REMARKS
DEMING         FAIR      68  58  70 VRB5      30.21S
LAS CRUCES     FAIR      69  59  70 SW5       30.23F
HOLLOMAN AFB   FAIR      69  59  70 NW6       30.22S
ALAMOGORDO     FAIR      72  57  60 N6        30.22R
T OR C         FAIR      68  55  63 S10       30.24S

$$
NMZ519>523-251000-
CENTRAL VALLEYS/CENTRAL HIGHLANDS

CITY           SKY/WX    TMP DP  RH WIND       PRES   REMARKS
ALBUQUERQUE    FAIR      69  53  56 E7        30.27R
DOUBLE EAGLE   FAIR      65  53  67 SE7       30.31R
MORIARTY ARPT  FAIR      64  57  77 SE13      30.37S
CLINES CORNERS CLOUDY    58  53  84 E14       30.42F
BELEN          FAIR      67  46  46 S12       30.25S
SOCORRO        FAIR      63  52  66 SW6       30.25S

$$
NMZ524>526-539-540-251000-
SOUTHCENTRAL MOUNTAINS

CITY           SKY/WX    TMP DP  RH WIND       PRES   REMARKS
RUIDOSO        MOCLDY    57  54  88 SE7       30.42F

$$
NMZ527>531-251000-
NORTHEAST HIGHLANDS/NORTHEAST PLAINS

CITY           SKY/WX    TMP DP  RH WIND       PRES   REMARKS
LAS VEGAS      CLOUDY    59  54  83 S12       30.42F
RATON          CLOUDY    59  56  89 W3        30.38F
CLAYTON        CLOUDY    60  57  89 S5        30.34S

$$
NMZ532>537-251000-
EASTCENTRAL PLAINS

CITY           SKY/WX    TMP DP  RH WIND       PRES   REMARKS
SANTA ROSA     FAIR      65  58  79 SE9       30.30F
TUCUMCARI      CLOUDY    65  62  90 SE13      30.27S
CANNON AFB     CLOUDY    63  63 100 S18G25    30.30F THUNDER
CLOVIS AIRPORT LGT RAIN  61  61 100 S16G24    30.28F

$$
NMZ028-029-538-251000-
SOUTHEAST PLAINS

CITY           SKY/WX    TMP DP  RH WIND       PRES   REMARKS
ROSWELL        FAIR      72  61  68 SE18G24   30.22F
ARTESIA        FAIR      73  64  73 E20       30.21F
CARLSBAD       CLOUDY    78  65  63 E16       30.19R
HOBBS          CLOUDY    68  64  88 E17       30.27F


$$



USA.gov is the U.S. government's official web portal to all federal, state and local government web resources and services.